1998-067VR

Last updated on Mon Jan 29 2024 00:02:07 GMT+0000 (Coordinated Universal Time)

1 57313U 98067VR 24027.68761598 .03337255 12023-4 91238-3 0 9990 2 57313 51.6141 269.1502 0007425 232.5990 127.4355 16.27216485 32219

Satellite not in orbit